BSAT-3B

Last updated on Sept. 28, 2020, 5:45 a.m. UTC

1 37207U 10056B   20271.89130939 -.00000373  00000-0  00000-0 0  9999
2 37207   0.0517 333.3751 0001997 284.3975 180.1175  1.00271952 31221
UTC
Height (km)
Latitude
Longitude
Inclination
Orbital Period
UTC large
Height (km)
Speed (km/s)
/
Latitude / Longitude
Inclination (degrees)
Orbital Period (minutes)
Azimuth
Elevation
Range (km)
Doppler Factor
iOS Compass Heading
iOS Angle

Next 30 passes for location: Hong Kong

Rise time Rise Azimuth (degrees) Set time Set Azimuth (degrees) Duration Max altitude (degrees)

No matching passes for this satellites